Lapse_Rate
6.5 6.7 6.7 6.8 6.7 7.0 7.2 7.2 7.2 7.1 7.0 6.9 7.0 6.9 6.7 6.5 6.5 6.5 6.5 6.3 6.2 6.0 5.9 6.0 5.9 5.9 5.9
6.5 6.5 6.6 6.5 6.3 6.5 6.8 7.0 7.0 7.0 6.7 6.4 6.4 6.5 6.4 6.2 6.0 6.0 6.0 5.8 5.5 5.5 5.3 5.5 5.5 5.6 5.5
6.4 6.4 6.4 6.5 6.6 6.6 6.6 6.6 6.6 6.4 6.2 6.3 6.0 6.1 5.9 5.8 5.7 5.7 5.6 5.3 5.2 5.4 5.4 5.2 5.4 5.3 5.3
6.4 6.1 6.5 6.7 6.7 6.6 6.4 6.3 6.1 5.9 5.8 5.8 5.7 5.3 5.4 5.6 5.4 5.3 5.3 5.3 5.3 5.4 5.4 5.2 5.2 5.4 5.4
6.1 6.4 6.6 6.7 6.5 6.2 6.1 6.1 6.0 5.7 5.3 5.7 5.7 5.5 5.5 5.5 5.5 5.4 5.5 5.5 5.5 5.5 5.4 5.4 5.3 5.3 5.3
6.3 6.5 6.6 6.4 6.2 6.1 6.1 6.1 5.8 5.6 5.5 5.6 5.4 5.3 5.3 5.4 5.4 5.4 5.4 5.4 5.4 5.3 5.3 5.2 5.3 5.4 5.5
6.4 6.3 6.1 6.1 6.2 6.2 6.1 5.8 5.7 5.6 5.5 5.4 5.4 5.4 5.4 5.5 5.4 5.3 5.3 5.3 5.3 5.4 5.5 5.6 5.7 5.8 5.9
6.1 6.0 5.9 6.0 5.9 5.9 5.8 5.7 5.6 5.5 5.4 5.4 5.3 5.3 5.4 5.5 5.5 5.5 5.8 5.9 5.9 6.0 6.1 6.2 6.3 6.3 6.4
5.8 5.9 5.8 5.8 5.8 5.7 5.6 5.5 5.5 5.5 5.3 5.3 5.4 5.5 5.6 5.8 5.9 6.0 6.1 6.2 6.2 6.3 6.4 6.4 6.4 6.3 6.3
5.8 5.8 5.7 5.7 5.6 5.5 5.6 5.6 5.5 5.4 5.4 5.4 5.6 5.7 5.9 6.0 6.0 6.1 6.1 6.2 6.3 6.3 6.1 6.0 6.0 6.1 6.1
5.8 5.7 5.7 5.6 5.6 5.6 5.7 5.7 5.5 5.5 5.5 5.6 5.7 5.8 5.9 6.0 6.1 6.2 6.3 6.2 6.0 6.0 6.0 6.0 5.9 5.9 5.9
5.8 5.7 5.6 5.6 5.7 5.7 5.6 5.6 5.5 5.5 5.6 5.7 5.7 5.9 6.0 6.2 6.2 6.2 6.0 5.9 5.9 6.1 6.1 6.0 6.0 6.1 6.2
5.7 5.6 5.6 5.6 5.6 5.6 5.4 5.5 5.4 5.3 5.5 5.6 5.8 6.0 6.1 6.2 6.2 6.1 5.9 5.9 5.9 6.1 6.1 6.0 6.1 6.2 6.4
5.7 5.6 5.5 5.6 5.6 5.4 5.3 5.2 5.2 5.3 5.4 5.6 5.8 6.0 6.1 6.1 6.0 5.9 5.9 5.9 5.9 6.0 6.2 6.2 6.2 6.1 5.9
5.7 5.5 5.5 5.6 5.4 5.2 5.1 5.2 5.2 5.1 5.3 5.5 5.8 5.9 5.8 5.6 5.5 5.7 5.8 5.8 5.8 5.8 5.9 6.1 6.0 5.9 5.9
5.5 5.5 5.6 5.5 5.3 5.1 5.0 5.0 4.9 5.1 5.3 5.5 5.6 5.5 5.2 5.2 5.3 5.4 5.6 5.7 5.7 5.7 5.6 5.4 5.5 5.6 5.5
5.6 5.5 5.5 5.4 5.2 5.0 4.9 4.8 4.9 5.0 5.2 5.6 5.5 5.4 5.3 5.3 5.3 5.3 5.5 5.8 5.8 5.8 5.7 5.7 5.4 5.3 5.1
Wind_Speed
1 3 2 5 6 7 7 7 9 7 7 12 15 13 13 11 11 11 15 14 13 13 11 11 11 13 14
2 2 2 3 5 6 6 6 10 14 11 15 14 14 14 11 11 14 13 13 13 11 11 11 13 13 12
3 2 2 2 3 4 4 6 9 10 15 14 13 13 12 13 14 15 14 12 12 10 11 11 13 12 12
3 2 1 1 2 2 2 3 3 7 12 12 13 12 11 12 12 13 12 12 9 9 10 11 11 13 13
3 2 2 2 2 2 2 2 3 4 2 6 7 9 8 10 10 10 10 7 7 8 9 10 10 11 12
3 2 3 2 2 3 3 2 2 5 1 2 4 3 4 6 7 7 7 5 7 8 8 9 10 11 11
4 3 3 3 3 3 2 2 2 1 1 2 1 3 3 6 4 6 3 4 7 8 9 10 11 11 12
4 4 4 5 4 2 3 6 4 4 2 2 1 2 2 4 3 4 5 6 7 8 9 10 10 10 9
14 13 11 10 9 6 5 4 2 2 4 1 1 2 2 3 6 7 6 6 7 8 9 9 10 8 6
8 12 12 12 10 5 4 3 3 2 2 1 2 1 2 2 3 4 4 6 5 9 10 10 11 7 6
7 6 6 8 9 9 7 3 3 2 2 1 1 1 1 2 1 3 4 3 5 7 9 10 10 8 6
5 5 5 5 6 11 13 14 14 10 6 3 2 1 1 1 1 1 2 2 5 8 9 10 8 7 5
4 3 3 6 8 7 11 13 13 11 10 7 4 2 1 1 1 1 1 1 6 7 9 8 6 6 4
4 5 5 3 3 2 3 2 3 3 8 9 5 2 2 2 1 1 2 1 4 6 7 6 5 4 4
4 4 4 4 2 2 2 2 2 1 2 4 5 4 2 3 2 1 2 2 3 4 4 4 3 5 6
4 4 4 4 4 2 2 2 3 3 2 2 1 1 1 1 0 1 1 2 3 3 3 3 5 7 8
4 4 4 4 5 4 4 3 3 3 2 1 2 1 1 1 1 3 2 2 4 3 3 3 4 8 12
Wind_Direction
141 152 119 113 93 82 62 50 42 62 125 125 109 104 97 92 88 87 82 70 59 56 47 35 34 34 28
155 145 108 110 114 96 76 55 47 47 91 107 111 105 97 92 99 97 90 79 67 60 55 46 41 36 30
159 119 116 154 97 82 81 70 54 50 68 91 93 95 91 93 96 89 80 75 71 60 52 43 39 34 25
169 131 123 127 128 137 121 63 55 53 64 70 75 87 95 100 95 92 78 65 62 53 43 35 30 27 21
178 132 137 140 172 135 114 122 56 21 66 45 58 69 68 99 99 92 83 68 58 48 40 30 24 21 15
170 167 156 140 138 152 128 143 151 24 54 68 32 78 59 55 106 99 78 66 56 46 34 24 18 11 6
169 159 152 164 135 129 119 113 98 63 147 119 39 124 35 31 84 88 81 67 58 40 27 15 6 0 358
103 115 106 124 131 127 126 110 105 82 23 127 97 111 63 51 68 88 76 71 56 31 13 1 355 349 345
96 104 103 107 117 124 126 140 121 90 31 70 85 106 78 92 60 56 70 75 53 28 9 357 347 342 337
92 82 81 79 72 72 146 140 124 124 44 146 139 143 146 93 82 54 62 51 37 11 357 349 346 339 336
102 93 80 73 66 64 59 98 119 92 24 113 125 121 67 120 104 57 34 31 3 345 343 346 346 347 333
109 99 96 88 77 74 73 74 71 90 76 80 99 70 96 115 144 44 50 53 358 342 342 341 349 355 352
122 106 101 110 103 87 79 80 76 69 52 47 68 102 95 118 129 56 18 2 352 345 342 348 346 346 343
118 112 117 120 116 92 99 83 80 64 49 46 57 115 135 103 106 106 19 356 348 343 334 325 338 342 325
135 137 138 137 121 112 109 88 87 97 58 34 43 69 85 135 118 59 353 344 343 336 335 332 317 338 338
142 147 151 150 135 120 106 110 121 119 98 26 26 133 90 89 187 63 317 313 328 324 314 320 320 336 326
163 168 153 147 138 137 125 129 130 124 82 27 38 81 112 131 314 247 286 298 320 314 316 301 293 310 320